Centerview, MO

6:26 AM CST on January 19, 2017 (GMT -0600)
Skyhaven

Weather History for KRCM - April, 2014

Change the Weather History Date:

Thursday, April 17, 2014

  Actual Average (KSZL) Record (KSZL)
Temperature  
Mean Temperature - -  
Max Temperature - 64 °F 86 °F (2002)
Min Temperature - 45 °F 30 °F (1997)
Moisture  
Dew Point -    
Average Humidity    
Maximum Humidity    
Minimum Humidity    
Precipitation  
Precipitation 0.00 in - - ()
Sea Level Pressure  
Sea Level Pressure 30.24 in    
Wind  
Wind Speed 6 mph (NNW)    
Max Wind Speed 13 mph    
Max Gust Speed 23 mph    
Visibility 10 miles    
Events      
Averages and records for this station are not official NWS values.
T = Trace of Precipitation, MM = Missing Value Source: NWS Daily Summary

Daily Weather History Graph

Daily Weather History Graph

Search for Another Location

Airport or City:

Trip Planner

Search our weather history database for the weather conditions in past years. The results will help you decide how hot, cold, wet, or windy it might be!

Date:

Astronomy

Apr. 17, 2014 Rise Set
Actual Time 6:35 AM CDT 7:54 PM CDT
Civil Twilight 6:08 AM CDT 8:21 PM CDT
Nautical Twilight 5:35 AM CDT 8:54 PM CDT
Astronomical Twilight 5:00 AM CDT 9:29 PM CDT
Moon 10:39 PM CDT (4/17) 8:09 AM CDT (4/17)
Length of Visible Light 14h 13m
Length of Day
13h 18m
Waning Gibbous, 93% of the Moon is Illuminated
Apr 17
Waning Gibbous
Apr 22
Last Quarter
Apr 29
New
May 6
First Quarter
May 14
Full

Hourly Weather History & Observations

Time (CDT) Temp. Dew Point Humidity Pressure Visibility Wind Dir Wind Speed Gust Speed Precip Events Conditions
12:15 AM - - N/A% 30.06 in 10.0 mi SSW 5.8 mph - N/A   Clear
12:35 AM - - N/A% 30.07 in 10.0 mi SSW 6.9 mph - N/A   Clear
12:55 AM - - N/A% 30.07 in 10.0 mi South 4.6 mph - N/A   Clear
1:15 AM - - N/A% 30.08 in 10.0 mi SSW 4.6 mph - N/A   Clear
1:55 AM - - N/A% 30.10 in 10.0 mi NW 9.2 mph - N/A   Clear
2:15 AM - - N/A% 30.10 in 10.0 mi NW 6.9 mph - N/A   Clear
2:35 AM - - N/A% 30.11 in 10.0 mi NW 8.1 mph - N/A   Clear
2:55 AM - - N/A% 30.11 in 10.0 mi NW 9.2 mph - N/A   Clear
3:15 AM - - N/A% 30.12 in 10.0 mi NW 6.9 mph - N/A   Clear
3:35 AM - - N/A% 30.13 in 10.0 mi NW 6.9 mph - N/A   Clear
3:55 AM - - N/A% 30.13 in 10.0 mi NW 6.9 mph - N/A   Clear
4:15 AM - - N/A% 30.14 in 10.0 mi NNW 4.6 mph - N/A   Clear
4:55 AM - - N/A% 30.17 in 10.0 mi NW 4.6 mph - N/A   Clear
5:15 AM - - N/A% 30.18 in 10.0 mi NW 8.1 mph - N/A   Clear
5:35 AM - - N/A% 30.19 in 10.0 mi NNW 9.2 mph - N/A   Clear
5:55 AM - - N/A% 30.19 in 10.0 mi NW 6.9 mph - N/A   Clear
6:15 AM - - N/A% 30.20 in 10.0 mi NW 4.6 mph - N/A   Clear
6:35 AM - - N/A% 30.21 in 10.0 mi NW 4.6 mph - N/A   Clear
6:55 AM - - N/A% 30.21 in 10.0 mi NNW 8.1 mph - N/A   Clear
7:15 AM - - N/A% 30.22 in 10.0 mi NNW 5.8 mph - N/A   Scattered Clouds
7:35 AM - - N/A% 30.23 in 10.0 mi NNW 5.8 mph - N/A   Scattered Clouds
7:55 AM - - N/A% 30.24 in 10.0 mi North 10.4 mph - N/A   Scattered Clouds
8:15 AM - - N/A% 30.26 in 10.0 mi NNW 10.4 mph - N/A   Mostly Cloudy
8:35 AM - - N/A% 30.26 in 10.0 mi NNW 12.7 mph 16.1 mph N/A   Mostly Cloudy
8:55 AM - - N/A% 30.27 in 10.0 mi NNW 9.2 mph - N/A   Mostly Cloudy
9:15 AM - - N/A% 30.27 in 10.0 mi NNW 9.2 mph 17.3 mph N/A   Overcast
9:35 AM - - N/A% 30.27 in 10.0 mi NNW 11.5 mph 23.0 mph N/A   Mostly Cloudy
9:55 AM - - N/A% 30.28 in 10.0 mi North 9.2 mph 16.1 mph N/A   Mostly Cloudy
10:15 AM - - N/A% 30.28 in 10.0 mi NNW 5.8 mph - N/A   Overcast
10:35 AM - - N/A% 30.30 in 10.0 mi North 5.8 mph - N/A   Overcast
10:55 AM - - N/A% 30.30 in 10.0 mi North 10.4 mph - N/A   Mostly Cloudy
11:15 AM - - N/A% 30.31 in 10.0 mi NNW 6.9 mph - N/A   Mostly Cloudy
11:35 AM - - N/A% 30.31 in 10.0 mi NNW 8.1 mph - N/A   Mostly Cloudy
11:55 AM - - N/A% 30.30 in 10.0 mi North 5.8 mph - N/A   Mostly Cloudy
12:15 PM - - N/A% 30.30 in 10.0 mi NNW 8.1 mph - N/A   Mostly Cloudy
12:35 PM - - N/A% 30.30 in 10.0 mi North 6.9 mph - N/A   Mostly Cloudy
12:55 PM - - N/A% 30.30 in 10.0 mi North 4.6 mph - N/A   Mostly Cloudy
1:15 PM - - N/A% 30.30 in 10.0 mi North 4.6 mph - N/A   Mostly Cloudy
1:55 PM - - N/A% 30.30 in 10.0 mi Calm Calm - N/A   Mostly Cloudy
2:15 PM - - N/A% 30.30 in 10.0 mi North 4.6 mph - N/A   Light Drizzle
2:35 PM - - N/A% 30.30 in 10.0 mi Calm Calm - N/A   Mostly Cloudy
2:55 PM - - N/A% 30.29 in 10.0 mi NW 4.6 mph - N/A   Mostly Cloudy
3:15 PM - - N/A% 30.29 in 10.0 mi North 3.5 mph - N/A   Mostly Cloudy
3:35 PM - - N/A% 30.29 in 10.0 mi North 3.5 mph - N/A   Overcast
3:55 PM - - N/A% 30.28 in 10.0 mi Calm Calm - N/A   Light Drizzle
4:15 PM - - N/A% 30.28 in 10.0 mi Calm Calm - N/A   Overcast
4:35 PM - - N/A% 30.28 in 10.0 mi Calm Calm - N/A   Light Drizzle
4:55 PM - - N/A% 30.29 in 10.0 mi Calm Calm - N/A   Drizzle
5:15 PM - - N/A% 30.29 in 10.0 mi Calm Calm - N/A   Drizzle
5:35 PM - - N/A% 30.29 in 10.0 mi Calm Calm - N/A   Light Drizzle
5:55 PM - - N/A% 30.29 in 10.0 mi Calm Calm - N/A   Light Drizzle
6:15 PM - - N/A% 30.29 in 10.0 mi Calm Calm - N/A   Overcast
6:55 PM - - N/A% 30.29 in 10.0 mi NE 3.5 mph - N/A   Overcast
7:15 PM - - N/A% 30.29 in 10.0 mi Calm Calm - N/A   Overcast
7:35 PM - - N/A% 30.28 in 10.0 mi NE 3.5 mph - N/A   Overcast
7:55 PM - - N/A% 30.28 in 10.0 mi Calm Calm - N/A   Mostly Cloudy
8:15 PM - - N/A% 30.28 in 10.0 mi Calm Calm - N/A   Overcast
8:35 PM - - N/A% 30.28 in 10.0 mi NNW 4.6 mph - N/A   Scattered Clouds
8:55 PM - - N/A% 30.28 in 10.0 mi NNW 3.5 mph - N/A   Clear
9:15 PM - - N/A% 30.28 in 10.0 mi NW 3.5 mph - N/A   Clear
9:35 PM - - N/A% 30.29 in 10.0 mi NW 3.5 mph - N/A   Clear
9:55 PM - - N/A% 30.29 in 10.0 mi NNW 3.5 mph - N/A   Clear
10:15 PM - - N/A% 30.29 in 10.0 mi Calm Calm - N/A   Clear
10:35 PM - - N/A% 30.29 in 10.0 mi Calm Calm - N/A   Clear
10:55 PM - - N/A% 30.29 in 7.0 mi Calm Calm - N/A   Clear
11:15 PM - - N/A% 30.29 in 7.0 mi Calm Calm - N/A   Clear
11:35 PM - - N/A% 30.28 in 7.0 mi Calm Calm - N/A   Clear
11:55 PM - - N/A% 30.29 in 7.0 mi Calm Calm - N/A   Clear